Wolf Point, MT

11:28 PM MDT on July 23, 2017 (GMT -0600)
Clayton

Weather History for KOLF - January, 2013

Change the Weather History Date:

Monday, January 7, 2013

  Actual Average Record
Temperature  
Mean Temperature 15 °F -  
Max Temperature 25 °F 23 °F 53 °F (2002)
Min Temperature 5 °F 1 °F -29 °F (2015)
Degree Days  
Heating Degree Days 50    
Cooling Degree Days 0    
Moisture  
Dew Point 14 °F    
Average Humidity 80    
Maximum Humidity 91    
Minimum Humidity 72    
Precipitation  
Precipitation 0.03 in 0.01 in 0.03 in (2013)
Month to date precipitation 0.03 0.09  
Year to date precipitation 0.03 0.09  
Sea Level Pressure  
Sea Level Pressure 29.82 in    
Wind  
Wind Speed 7 mph (WNW)    
Max Wind Speed 13 mph    
Max Gust Speed -    
Visibility 8 miles    
Events Snow    
T = Trace of Precipitation, MM = Missing Value Source: NWS Daily Summary

Daily Weather History Graph

Daily Weather History Graph

Search for Another Location

Airport or City:

Trip Planner

Search our weather history database for the weather conditions in past years. The results will help you decide how hot, cold, wet, or windy it might be!

Date:

Astronomy

Jan. 07, 2013 Rise Set
Actual Time 7:51 AM MST 4:26 PM MST
Civil Twilight 7:15 AM MST 5:02 PM MST
Nautical Twilight 6:36 AM MST 5:41 PM MST
Astronomical Twilight 5:58 AM MST 6:19 PM MST
Moon 3:13 AM MST (1/7) 12:43 PM MST (1/7)
Length of Visible Light 9h 46m
Length of Day
8h 35m
Waning Crescent, 22% of the Moon is Illuminated
Jan 7
Waning Crescent
Jan 11
New
Jan 18
First Quarter
Jan 26
Full
Feb 3
Last Quarter

Hourly Weather History & Observations

Time (MST) Temp. Windchill Dew Point Humidity Pressure Visibility Wind Dir Wind Speed Gust Speed Precip Events Conditions
12:53 AM 21.0 °F 11.4 °F 15.1 °F 78% 29.89 in 10.0 mi WNW 8.1 mph - N/A   Clear
1:53 AM 21.0 °F 9.9 °F 15.1 °F 78% 29.90 in 10.0 mi West 10.4 mph - N/A   Clear
2:53 AM 18.0 °F 7.7 °F 12.0 °F 78% 29.91 in 10.0 mi West 8.1 mph - N/A   Clear
3:53 AM 17.1 °F 6.6 °F 12.0 °F 81% 29.92 in 10.0 mi WSW 8.1 mph - N/A   Clear
4:53 AM 19.0 °F 7.5 °F 12.9 °F 77% 29.91 in 10.0 mi West 10.4 mph - N/A   Clear
5:53 AM 17.1 °F 8.7 °F 12.0 °F 81% 29.93 in 10.0 mi WSW 5.8 mph - N/A   Clear
6:53 AM 15.1 °F 1.8 °F 9.0 °F 77% 29.93 in 10.0 mi West 11.5 mph - N/A   Clear
7:53 AM 17.1 °F 4.3 °F 10.9 °F 77% 29.93 in 10.0 mi West 11.5 mph - N/A   Clear
8:53 AM 19.0 °F 6.1 °F 12.9 °F 77% 29.95 in 10.0 mi West 12.7 mph - N/A   Clear
9:53 AM 19.0 °F 8.2 °F 12.9 °F 77% 29.96 in 10.0 mi WSW 9.2 mph - N/A   Clear
10:53 AM 19.9 °F 9.3 °F 14.0 °F 78% 29.96 in 10.0 mi SW 9.2 mph - N/A   Clear
11:53 AM 23.0 °F 11.1 °F 16.0 °F 74% 29.94 in 10.0 mi SW 12.7 mph - N/A   Clear
12:53 PM 23.0 °F 14.7 °F 16.0 °F 74% 29.92 in 10.0 mi West 6.9 mph - N/A   Clear
1:53 PM 25.0 °F 17.1 °F 17.1 °F 72% 29.89 in 10.0 mi West 6.9 mph - N/A   Clear
2:53 PM 23.0 °F 17.0 °F 16.0 °F 74% 29.88 in 10.0 mi West 4.6 mph - N/A   Clear
3:53 PM 19.4 °F - 12.2 °F 74% 29.76 in 10.0 mi Calm Calm - N/A   Clear
4:53 PM 18.0 °F - 12.9 °F 81% 29.86 in 10.0 mi Calm Calm - N/A   Clear
5:53 PM 8.1 °F - 5.0 °F 87% 29.86 in 10.0 mi Calm Calm - N/A   Clear
6:53 PM 8.1 °F 1.4 °F 5.0 °F 87% 29.83 in 10.0 mi ENE 3.5 mph - N/A   Clear
7:53 PM 8.1 °F 1.4 °F 3.9 °F 83% 29.80 in 10.0 mi NE 3.5 mph - N/A   Clear
8:53 PM 9.0 °F -0.9 °F 5.0 °F 84% 29.76 in 10.0 mi ENE 5.8 mph - N/A   Mostly Cloudy
9:53 PM 19.0 °F 9.0 °F 15.1 °F 85% 29.72 in 10.0 mi NE 8.1 mph - N/A   Overcast
10:53 PM 21.9 °F 14.5 °F 17.1 °F 82% 29.70 in 10.0 mi East 5.8 mph - N/A   Overcast
11:03 PM 23.0 °F 17.0 °F 17.6 °F 80% 29.60 in 3.0 mi NE 4.6 mph - 0.00 in Snow Light Snow
11:08 PM 23.0 °F 17.0 °F 17.6 °F 80% 29.59 in 1.8 mi ENE 4.6 mph - 0.00 in Snow Light Snow
11:19 PM 23.0 °F 17.0 °F 19.4 °F 86% 29.59 in 1.0 mi East 4.6 mph - 0.00 in Snow Light Snow
11:27 PM 23.0 °F 17.0 °F 19.4 °F 86% 29.58 in 0.8 mi ENE 4.6 mph - 0.01 in Snow Light Snow
11:40 PM 24.8 °F 20.5 °F 21.2 °F 86% 29.57 in 1.2 mi NE 3.5 mph - 0.02 in Snow Light Snow
11:53 PM 24.1 °F 18.2 °F 21.9 °F 91% 29.65 in 1.8 mi NE 4.6 mph - 0.02 in Snow Light Snow